Year,Month,Day,Hour,Minute,Value (Times are PST for temperature in C)
2016,07,18,00,00,16.40
2016,07,18,00,01,16.40
2016,07,18,00,02,16.40
2016,07,18,00,03,16.40
2016,07,18,00,04,16.40
2016,07,18,00,05,16.40
2016,07,18,00,06,16.40
2016,07,18,00,07,16.30
2016,07,18,00,08,16.30
2016,07,18,00,09,16.30
2016,07,18,00,10,16.40
2016,07,18,00,11,16.40
2016,07,18,00,12,16.40
2016,07,18,00,13,16.40
2016,07,18,00,14,16.40
2016,07,18,00,15,16.40
2016,07,18,00,16,16.40
2016,07,18,00,17,16.40
2016,07,18,00,18,16.40
2016,07,18,00,19,16.50
2016,07,18,00,20,16.50
2016,07,18,00,21,16.50
2016,07,18,00,22,16.60
2016,07,18,00,23,16.60
2016,07,18,00,24,16.60
2016,07,18,00,25,16.60
2016,07,18,00,26,16.60
2016,07,18,00,27,16.60
2016,07,18,00,28,16.60
2016,07,18,00,29,16.60
2016,07,18,00,30,16.60
2016,07,18,00,31,16.60
2016,07,18,00,32,16.60
2016,07,18,00,33,16.60
2016,07,18,00,34,16.60
2016,07,18,00,35,16.60
2016,07,18,00,36,16.60
2016,07,18,00,37,16.60
2016,07,18,00,38,16.60
2016,07,18,00,39,16.60
2016,07,18,00,40,16.70
2016,07,18,00,41,16.50
2016,07,18,00,42,16.50
2016,07,18,00,43,16.50
2016,07,18,00,44,16.50
2016,07,18,00,45,16.50
2016,07,18,00,46,16.50
2016,07,18,00,47,16.50
2016,07,18,00,48,16.50
2016,07,18,00,49,16.50
2016,07,18,00,50,16.50
2016,07,18,00,51,16.50
2016,07,18,00,52,16.40
2016,07,18,00,53,16.40
2016,07,18,00,54,16.40
2016,07,18,00,55,16.40
2016,07,18,00,56,16.30
2016,07,18,00,57,16.30
2016,07,18,00,58,16.30
2016,07,18,00,59,16.30
2016,07,18,01,00,16.30
2016,07,18,01,01,16.20
2016,07,18,01,02,16.20
2016,07,18,01,03,16.20
2016,07,18,01,04,16.20
2016,07,18,01,05,16.20
2016,07,18,01,06,16.20
2016,07,18,01,07,16.10
2016,07,18,01,08,16.10
2016,07,18,01,09,16.10
2016,07,18,01,10,16.10
2016,07,18,01,11,16.10
2016,07,18,01,12,16.10
2016,07,18,01,13,16.00
2016,07,18,01,14,16.00
2016,07,18,01,15,16.00
2016,07,18,01,16,16.00
2016,07,18,01,17,16.10
2016,07,18,01,18,16.20
2016,07,18,01,19,16.20
2016,07,18,01,20,16.20
2016,07,18,01,21,16.20
2016,07,18,01,22,16.20
2016,07,18,01,23,16.20
2016,07,18,01,24,16.20
2016,07,18,01,25,16.10
2016,07,18,01,26,16.10
2016,07,18,01,27,16.10
2016,07,18,01,28,16.10
2016,07,18,01,29,16.10
2016,07,18,01,30,16.10
2016,07,18,01,31,16.00
2016,07,18,01,32,16.00
2016,07,18,01,33,16.00
2016,07,18,01,34,15.90
2016,07,18,01,35,15.90
2016,07,18,01,36,15.90
2016,07,18,01,37,15.90
2016,07,18,01,38,15.90
2016,07,18,01,39,15.90
2016,07,18,01,40,15.90
2016,07,18,01,41,15.80
2016,07,18,01,42,15.80
2016,07,18,01,43,15.80
2016,07,18,01,44,15.80
2016,07,18,01,45,15.80
2016,07,18,01,46,15.80
2016,07,18,01,47,15.80
2016,07,18,01,48,15.80
2016,07,18,01,49,15.70
2016,07,18,01,50,15.70
2016,07,18,01,51,15.70
2016,07,18,01,52,15.70
2016,07,18,01,53,15.70
2016,07,18,01,54,15.70
2016,07,18,01,55,15.70
2016,07,18,01,56,15.60
2016,07,18,01,57,15.60
2016,07,18,01,58,15.60
2016,07,18,01,59,15.60
2016,07,18,02,00,15.60
2016,07,18,02,01,15.60
2016,07,18,02,02,15.60
2016,07,18,02,03,15.50
2016,07,18,02,04,15.50
2016,07,18,02,05,15.50
2016,07,18,02,06,15.50
2016,07,18,02,07,15.50
2016,07,18,02,08,15.60
2016,07,18,02,09,15.60
2016,07,18,02,10,15.60
2016,07,18,02,11,15.60
2016,07,18,02,12,15.60
2016,07,18,02,13,15.60
2016,07,18,02,14,15.60
2016,07,18,02,15,15.60
2016,07,18,02,16,15.60
2016,07,18,02,17,15.60
2016,07,18,02,18,15.60
2016,07,18,02,19,15.60
2016,07,18,02,20,15.60
2016,07,18,02,21,15.60
2016,07,18,02,22,15.50
2016,07,18,02,23,15.50
2016,07,18,02,24,15.50
2016,07,18,02,25,15.50
2016,07,18,02,26,15.40
2016,07,18,02,27,15.40
2016,07,18,02,28,15.40
2016,07,18,02,29,15.40
2016,07,18,02,30,15.40
2016,07,18,02,31,15.40
2016,07,18,02,32,15.30
2016,07,18,02,33,15.30
2016,07,18,02,34,15.30
2016,07,18,02,35,15.30
2016,07,18,02,36,15.30
2016,07,18,02,37,15.20
2016,07,18,02,38,15.30
2016,07,18,02,39,15.30
2016,07,18,02,40,15.30
2016,07,18,02,41,15.30
2016,07,18,02,42,15.30
2016,07,18,02,43,15.30
2016,07,18,02,44,15.30
2016,07,18,02,45,15.30
2016,07,18,02,46,15.20
2016,07,18,02,47,15.20
2016,07,18,02,48,15.20
2016,07,18,02,49,15.20
2016,07,18,02,50,15.20
2016,07,18,02,51,15.20
2016,07,18,02,52,15.20
2016,07,18,02,53,15.20
2016,07,18,02,54,15.10
2016,07,18,02,55,15.10
2016,07,18,02,56,15.10
2016,07,18,02,57,15.10
2016,07,18,02,58,15.10
2016,07,18,02,59,15.10
2016,07,18,03,00,15.10
2016,07,18,03,01,15.10
2016,07,18,03,02,15.10
2016,07,18,03,03,15.00
2016,07,18,03,04,15.00
2016,07,18,03,05,15.00
2016,07,18,03,06,15.00
2016,07,18,03,07,15.00
2016,07,18,03,08,15.00
2016,07,18,03,09,15.00
2016,07,18,03,10,15.00
2016,07,18,03,11,15.00
2016,07,18,03,12,15.00
2016,07,18,03,13,15.00
2016,07,18,03,14,15.00
2016,07,18,03,15,15.00
2016,07,18,03,16,15.00
2016,07,18,03,17,15.00
2016,07,18,03,18,15.00
2016,07,18,03,19,15.00
2016,07,18,03,20,15.00
2016,07,18,03,21,15.00
2016,07,18,03,22,15.00
2016,07,18,03,23,14.80
2016,07,18,03,24,14.80
2016,07,18,03,25,14.70
2016,07,18,03,26,14.70
2016,07,18,03,27,14.70
2016,07,18,03,28,14.70
2016,07,18,03,29,14.70
2016,07,18,03,30,14.70
2016,07,18,03,31,14.70
2016,07,18,03,32,14.70
2016,07,18,03,33,14.70
2016,07,18,03,34,14.70
2016,07,18,03,35,14.70
2016,07,18,03,36,14.70
2016,07,18,03,37,14.70
2016,07,18,03,38,14.70
2016,07,18,03,39,14.70
2016,07,18,03,40,14.70
2016,07,18,03,41,14.70
2016,07,18,03,42,14.70
2016,07,18,03,43,14.70
2016,07,18,03,44,14.70
2016,07,18,03,45,14.70
2016,07,18,03,46,14.70
2016,07,18,03,47,14.80
2016,07,18,03,48,14.80
2016,07,18,03,49,14.80
2016,07,18,03,50,14.80
2016,07,18,03,51,14.70
2016,07,18,03,52,14.70
2016,07,18,03,53,14.70
2016,07,18,03,54,14.70
2016,07,18,03,55,14.70
2016,07,18,03,56,14.70
2016,07,18,03,57,14.60
2016,07,18,03,58,14.60
2016,07,18,03,59,14.60
2016,07,18,04,00,14.60
2016,07,18,04,01,14.60
2016,07,18,04,02,14.50
2016,07,18,04,03,14.50
2016,07,18,04,04,14.50
2016,07,18,04,05,14.50
2016,07,18,04,06,14.40
2016,07,18,04,07,14.40
2016,07,18,04,08,14.40
2016,07,18,04,09,14.40
2016,07,18,04,10,14.40
2016,07,18,04,11,14.40
2016,07,18,04,12,14.40
2016,07,18,04,13,14.40
2016,07,18,04,14,14.40
2016,07,18,04,15,14.30
2016,07,18,04,16,14.30
2016,07,18,04,17,14.30
2016,07,18,04,18,14.30
2016,07,18,04,19,14.30
2016,07,18,04,20,14.30
2016,07,18,04,21,14.30
2016,07,18,04,22,14.30
2016,07,18,04,23,14.30
2016,07,18,04,24,14.30
2016,07,18,04,25,14.20
2016,07,18,04,26,14.20
2016,07,18,04,27,14.20
2016,07,18,04,28,14.20
2016,07,18,04,29,14.20
2016,07,18,04,30,14.20
2016,07,18,04,31,14.10
2016,07,18,04,32,14.10
2016,07,18,04,33,14.10
2016,07,18,04,34,14.10
2016,07,18,04,35,14.10
2016,07,18,04,36,14.00
2016,07,18,04,37,14.00
2016,07,18,04,38,14.00
2016,07,18,04,39,14.00
2016,07,18,04,40,13.90
2016,07,18,04,41,13.90
2016,07,18,04,42,13.90
2016,07,18,04,43,13.90
2016,07,18,04,44,13.90
2016,07,18,04,45,13.90
2016,07,18,04,46,13.90
2016,07,18,04,47,13.90
2016,07,18,04,48,13.90
2016,07,18,04,49,13.80
2016,07,18,04,50,13.80
2016,07,18,04,51,13.80
2016,07,18,04,52,13.80
2016,07,18,04,53,13.80
2016,07,18,04,54,13.80
2016,07,18,04,55,13.80
2016,07,18,04,56,13.80
2016,07,18,04,57,13.80
2016,07,18,04,58,13.80
2016,07,18,04,59,13.80
2016,07,18,05,00,13.80
2016,07,18,05,01,13.80
2016,07,18,05,02,13.70
2016,07,18,05,03,13.80
2016,07,18,05,04,13.70
2016,07,18,05,05,13.70
2016,07,18,05,06,13.70
2016,07,18,05,07,13.70
2016,07,18,05,08,13.70
2016,07,18,05,09,13.70
2016,07,18,05,10,13.70
2016,07,18,05,11,13.70
2016,07,18,05,12,13.70
2016,07,18,05,13,13.70
2016,07,18,05,14,13.70
2016,07,18,05,15,13.60
2016,07,18,05,16,13.60
2016,07,18,05,17,13.60
2016,07,18,05,18,13.60
2016,07,18,05,19,13.60
2016,07,18,05,20,13.60
2016,07,18,05,21,13.50
2016,07,18,05,22,13.50
2016,07,18,05,23,13.50
2016,07,18,05,24,13.50
2016,07,18,05,25,13.40
2016,07,18,05,26,13.40
2016,07,18,05,27,13.40
2016,07,18,05,28,13.40
2016,07,18,05,29,13.40
2016,07,18,05,30,13.40
2016,07,18,05,31,13.30
2016,07,18,05,32,13.30
2016,07,18,05,33,13.30
2016,07,18,05,34,13.30
2016,07,18,05,35,13.30
2016,07,18,05,36,13.30
2016,07,18,05,37,13.20
2016,07,18,05,38,13.20
2016,07,18,05,39,13.20
2016,07,18,05,40,13.20
2016,07,18,05,41,13.20
2016,07,18,05,42,13.20
2016,07,18,05,43,13.20
2016,07,18,05,44,13.10
2016,07,18,05,45,13.10
2016,07,18,05,46,13.10
2016,07,18,05,47,13.10
2016,07,18,05,48,13.10
2016,07,18,05,49,13.10
2016,07,18,05,50,13.10
2016,07,18,05,51,13.10
2016,07,18,05,52,13.10
2016,07,18,05,53,13.10
2016,07,18,05,54,13.10
2016,07,18,05,55,13.10
2016,07,18,05,56,13.10
2016,07,18,05,57,13.10
2016,07,18,05,58,13.10
2016,07,18,05,59,13.10
2016,07,18,06,00,13.10
2016,07,18,06,01,13.20
2016,07,18,06,02,13.20
2016,07,18,06,03,13.20
2016,07,18,06,04,13.20
2016,07,18,06,05,13.20
2016,07,18,06,06,13.20
2016,07,18,06,07,13.20
2016,07,18,06,08,13.20
2016,07,18,06,09,13.20
2016,07,18,06,10,13.20
2016,07,18,06,11,13.20
2016,07,18,06,12,13.30
2016,07,18,06,13,13.30
2016,07,18,06,14,13.30
2016,07,18,06,15,13.30
2016,07,18,06,16,13.30
2016,07,18,06,17,13.30
2016,07,18,06,18,13.40
2016,07,18,06,19,13.40
2016,07,18,06,20,13.40
2016,07,18,06,21,13.40
2016,07,18,06,22,13.40
2016,07,18,06,23,13.50
2016,07,18,06,24,13.50
2016,07,18,06,25,13.50
2016,07,18,06,26,13.60
2016,07,18,06,27,13.60
2016,07,18,06,28,13.60
2016,07,18,06,29,13.60
2016,07,18,06,30,13.70
2016,07,18,06,31,13.70
2016,07,18,06,32,13.70
2016,07,18,06,33,13.70
2016,07,18,06,34,13.70
2016,07,18,06,35,13.80
2016,07,18,06,36,13.80
2016,07,18,06,37,13.80
2016,07,18,06,38,13.90
2016,07,18,06,39,13.90
2016,07,18,06,40,13.90
2016,07,18,06,41,13.90
2016,07,18,06,42,14.00
2016,07,18,06,43,14.00
2016,07,18,06,44,14.00
2016,07,18,06,45,14.10
2016,07,18,06,46,14.10
2016,07,18,06,47,14.10
2016,07,18,06,48,14.10
2016,07,18,06,49,14.10
2016,07,18,06,50,14.10
2016,07,18,06,51,14.10
2016,07,18,06,52,14.20
2016,07,18,06,53,14.20
2016,07,18,06,54,14.20
2016,07,18,06,55,14.20
2016,07,18,06,56,14.20
2016,07,18,06,57,14.20
2016,07,18,06,58,14.30
2016,07,18,06,59,14.30
2016,07,18,07,00,14.30
2016,07,18,07,01,14.30
2016,07,18,07,02,14.30
2016,07,18,07,03,14.30
2016,07,18,07,04,14.30
2016,07,18,07,05,14.40
2016,07,18,07,06,14.40
2016,07,18,07,07,14.40
2016,07,18,07,08,14.40
2016,07,18,07,09,14.40
2016,07,18,07,10,14.50
2016,07,18,07,11,14.50
2016,07,18,07,12,14.60
2016,07,18,07,13,14.60
2016,07,18,07,14,14.60
2016,07,18,07,15,14.70
2016,07,18,07,16,14.70
2016,07,18,07,17,14.70
2016,07,18,07,18,14.80
2016,07,18,07,19,14.80
2016,07,18,07,20,14.90
2016,07,18,07,21,15.00
2016,07,18,07,22,15.00
2016,07,18,07,23,15.00
2016,07,18,07,24,15.00
2016,07,18,07,25,15.00
2016,07,18,07,26,15.00
2016,07,18,07,27,15.10
2016,07,18,07,28,15.20
2016,07,18,07,29,15.30
2016,07,18,07,30,15.30
2016,07,18,07,31,15.40
2016,07,18,07,32,15.40
2016,07,18,07,33,15.50
2016,07,18,07,34,15.60
2016,07,18,07,35,15.70
2016,07,18,07,36,15.70
2016,07,18,07,37,15.80
2016,07,18,07,38,15.80
2016,07,18,07,39,15.90
2016,07,18,07,40,15.90
2016,07,18,07,41,16.00
2016,07,18,07,42,16.00
2016,07,18,07,43,16.10
2016,07,18,07,44,16.10
2016,07,18,07,45,16.20
2016,07,18,07,46,16.20
2016,07,18,07,47,16.30
2016,07,18,07,48,16.30
2016,07,18,07,49,16.40
2016,07,18,07,50,16.40
2016,07,18,07,51,16.40
2016,07,18,07,52,16.50
2016,07,18,07,53,16.50
2016,07,18,07,54,16.50
2016,07,18,07,55,16.60
2016,07,18,07,56,16.60
2016,07,18,07,57,16.60
2016,07,18,07,58,16.70
2016,07,18,07,59,16.70
2016,07,18,08,00,16.80
2016,07,18,08,01,16.80
2016,07,18,08,02,16.80
2016,07,18,08,03,16.90
2016,07,18,08,04,16.90
2016,07,18,08,05,16.90
2016,07,18,08,06,17.00
2016,07,18,08,07,17.00
2016,07,18,08,08,17.10
2016,07,18,08,09,17.10
2016,07,18,08,10,17.20
2016,07,18,08,11,17.20
2016,07,18,08,12,17.20
2016,07,18,08,13,17.30
2016,07,18,08,14,17.30
2016,07,18,08,15,17.30
2016,07,18,08,16,17.30
2016,07,18,08,17,17.30
2016,07,18,08,18,17.30
2016,07,18,08,19,17.30
2016,07,18,08,20,17.30
2016,07,18,08,21,17.30
2016,07,18,08,22,17.30
2016,07,18,08,23,17.30
2016,07,18,08,24,17.40
2016,07,18,08,25,17.40
2016,07,18,08,26,17.50
2016,07,18,08,27,17.50
2016,07,18,08,28,17.60
2016,07,18,08,29,17.60
2016,07,18,08,30,17.70
2016,07,18,08,31,17.80
2016,07,18,08,32,17.90
2016,07,18,08,33,18.00
2016,07,18,08,34,18.00
2016,07,18,08,35,18.10
2016,07,18,08,36,18.20
2016,07,18,08,37,18.20
2016,07,18,08,38,18.30
2016,07,18,08,39,18.30
2016,07,18,08,40,18.40
2016,07,18,08,41,18.50
2016,07,18,08,42,18.50
2016,07,18,08,43,18.60
2016,07,18,08,44,18.70
2016,07,18,08,45,18.80
2016,07,18,08,46,18.90
2016,07,18,08,47,19.10
2016,07,18,08,48,19.20
2016,07,18,08,49,19.30
2016,07,18,08,50,19.40
2016,07,18,08,51,19.50
2016,07,18,08,52,19.60
2016,07,18,08,53,19.60
2016,07,18,08,54,19.70
2016,07,18,08,55,19.70
2016,07,18,08,56,19.80
2016,07,18,08,57,19.80
2016,07,18,08,58,19.90
2016,07,18,08,59,19.90
2016,07,18,09,00,20.00
2016,07,18,09,01,20.00
2016,07,18,09,02,20.00
2016,07,18,09,03,20.10
2016,07,18,09,04,20.10
2016,07,18,09,05,20.10
2016,07,18,09,06,20.10
2016,07,18,09,07,20.10
2016,07,18,09,08,20.10
2016,07,18,09,09,20.00
2016,07,18,09,10,20.00
2016,07,18,09,11,20.00
2016,07,18,09,12,19.90
2016,07,18,09,13,19.90
2016,07,18,09,14,19.90
2016,07,18,09,15,19.90
2016,07,18,09,16,19.80
2016,07,18,09,17,19.80
2016,07,18,09,18,19.80
2016,07,18,09,19,19.80
2016,07,18,09,20,19.70
2016,07,18,09,21,19.70
2016,07,18,09,22,19.70
2016,07,18,09,23,19.70
2016,07,18,09,24,19.70
2016,07,18,09,25,19.70
2016,07,18,09,26,19.70
2016,07,18,09,27,19.80
2016,07,18,09,28,19.80
2016,07,18,09,29,19.80
2016,07,18,09,30,19.80
2016,07,18,09,31,19.90
2016,07,18,09,32,19.90
2016,07,18,09,33,20.00
2016,07,18,09,34,20.00
2016,07,18,09,35,20.10
2016,07,18,09,36,20.10
2016,07,18,09,37,20.20
2016,07,18,09,38,20.20
2016,07,18,09,39,20.30
2016,07,18,09,40,20.30
2016,07,18,09,41,20.30
2016,07,18,09,42,20.40
2016,07,18,09,43,20.40
2016,07,18,09,44,20.50
2016,07,18,09,45,20.50
2016,07,18,09,46,20.50
2016,07,18,09,47,20.50
2016,07,18,09,48,20.60
2016,07,18,09,49,20.60
2016,07,18,09,50,20.70
2016,07,18,09,51,20.70
2016,07,18,09,52,20.70
2016,07,18,09,53,20.70
2016,07,18,09,54,20.60
2016,07,18,09,55,20.50
2016,07,18,09,56,20.50
2016,07,18,09,57,20.40
2016,07,18,09,58,20.40
2016,07,18,09,59,20.40
2016,07,18,10,00,20.40
2016,07,18,10,01,20.40
2016,07,18,10,02,20.40
2016,07,18,10,03,20.50
2016,07,18,10,04,20.60
2016,07,18,10,05,20.60
2016,07,18,10,06,20.70
2016,07,18,10,07,20.80
2016,07,18,10,08,20.80
2016,07,18,10,09,20.80
2016,07,18,10,10,20.80
2016,07,18,10,11,20.80
2016,07,18,10,12,20.80
2016,07,18,10,13,20.80
2016,07,18,10,14,20.80
2016,07,18,10,15,20.80
2016,07,18,10,16,20.80
2016,07,18,10,17,20.70
2016,07,18,10,18,20.60
2016,07,18,10,19,20.60
2016,07,18,10,20,20.60
2016,07,18,10,21,20.60
2016,07,18,10,22,20.70
2016,07,18,10,23,20.70
2016,07,18,10,24,20.70
2016,07,18,10,25,20.80
2016,07,18,10,26,20.80
2016,07,18,10,27,20.80
2016,07,18,10,28,20.80
2016,07,18,10,29,20.80
2016,07,18,10,30,20.80
2016,07,18,10,31,20.80
2016,07,18,10,32,20.90
2016,07,18,10,33,20.90
2016,07,18,10,34,21.00
2016,07,18,10,35,21.10
2016,07,18,10,36,21.10
2016,07,18,10,37,21.10
2016,07,18,10,38,21.10
2016,07,18,10,39,21.10
2016,07,18,10,40,21.20
2016,07,18,10,41,21.20
2016,07,18,10,42,21.30
2016,07,18,10,43,21.30
2016,07,18,10,44,21.10
2016,07,18,10,45,20.80
2016,07,18,10,46,20.70
2016,07,18,10,47,20.60
2016,07,18,10,48,20.50
2016,07,18,10,49,20.50
2016,07,18,10,50,20.50
2016,07,18,10,51,20.50
2016,07,18,10,52,20.50
2016,07,18,10,53,20.40
2016,07,18,10,54,20.40
2016,07,18,10,55,20.50
2016,07,18,10,56,20.50
2016,07,18,10,57,20.50
2016,07,18,10,58,20.60
2016,07,18,10,59,20.60
2016,07,18,11,00,20.60
2016,07,18,11,01,20.60
2016,07,18,11,02,20.50
2016,07,18,11,03,20.50
2016,07,18,11,04,20.60
2016,07,18,11,05,20.60
2016,07,18,11,06,20.60
2016,07,18,11,07,20.70
2016,07,18,11,08,20.80
2016,07,18,11,09,20.80
2016,07,18,11,10,20.80
2016,07,18,11,11,20.80
2016,07,18,11,12,20.80
2016,07,18,11,13,20.70
2016,07,18,11,14,20.70
2016,07,18,11,15,20.80
2016,07,18,11,16,20.90
2016,07,18,11,17,21.00
2016,07,18,11,18,21.10
2016,07,18,11,19,21.20
2016,07,18,11,20,21.20
2016,07,18,11,21,21.20
2016,07,18,11,22,21.30
2016,07,18,11,23,21.30
2016,07,18,11,24,21.30
2016,07,18,11,25,21.30
2016,07,18,11,26,21.30
2016,07,18,11,27,21.30
2016,07,18,11,28,21.30
2016,07,18,11,29,21.30
2016,07,18,11,30,21.30
2016,07,18,11,31,21.40
2016,07,18,11,32,21.40
2016,07,18,11,33,21.30
2016,07,18,11,34,21.40
2016,07,18,11,35,21.40
2016,07,18,11,36,21.40
2016,07,18,11,37,21.40
2016,07,18,11,38,21.40
2016,07,18,11,39,21.40
2016,07,18,11,40,21.40
2016,07,18,11,41,21.50
2016,07,18,11,42,21.40
2016,07,18,11,43,21.40
2016,07,18,11,44,21.40
2016,07,18,11,45,21.40
2016,07,18,11,46,21.50
2016,07,18,11,47,21.50
2016,07,18,11,48,21.50
2016,07,18,11,49,21.40
2016,07,18,11,50,21.40
2016,07,18,11,51,21.30
2016,07,18,11,52,21.20
2016,07,18,11,53,21.20
2016,07,18,11,54,21.20
2016,07,18,11,55,21.20
2016,07,18,11,56,21.20
2016,07,18,11,57,21.20
2016,07,18,11,58,21.20
2016,07,18,11,59,21.30
2016,07,18,12,00,21.30
2016,07,18,12,01,21.30
2016,07,18,12,02,21.30
2016,07,18,12,03,21.30
2016,07,18,12,04,21.30
2016,07,18,12,05,21.30
2016,07,18,12,06,21.30
2016,07,18,12,07,21.30
2016,07,18,12,08,21.20
2016,07,18,12,09,21.20
2016,07,18,12,10,21.30
2016,07,18,12,11,21.20
2016,07,18,12,12,21.20
2016,07,18,12,13,21.30
2016,07,18,12,14,21.30
2016,07,18,12,15,21.40
2016,07,18,12,16,21.50
2016,07,18,12,17,21.70
2016,07,18,12,18,21.80
2016,07,18,12,19,21.80
2016,07,18,12,20,21.90
2016,07,18,12,21,21.90
2016,07,18,12,22,21.80
2016,07,18,12,23,21.80
2016,07,18,12,24,21.80
2016,07,18,12,25,21.80
2016,07,18,12,26,21.80
2016,07,18,12,27,21.80
2016,07,18,12,28,21.80
2016,07,18,12,29,21.80
2016,07,18,12,30,21.70
2016,07,18,12,31,21.70
2016,07,18,12,32,21.60
2016,07,18,12,33,21.50
2016,07,18,12,34,21.40
2016,07,18,12,35,21.30
2016,07,18,12,36,21.20
2016,07,18,12,37,21.20
2016,07,18,12,38,21.20
2016,07,18,12,39,21.30
2016,07,18,12,40,21.20
2016,07,18,12,41,21.30
2016,07,18,12,42,21.30
2016,07,18,12,43,21.30
2016,07,18,12,44,21.30
2016,07,18,12,45,21.30
2016,07,18,12,46,21.40
2016,07,18,12,47,21.50
2016,07,18,12,48,21.50
2016,07,18,12,49,21.60
2016,07,18,12,50,21.60
2016,07,18,12,51,21.60
2016,07,18,12,52,21.60
2016,07,18,12,53,21.60
2016,07,18,12,54,21.60
2016,07,18,12,55,21.60
2016,07,18,12,56,21.70
2016,07,18,12,57,21.70
2016,07,18,12,58,21.70
2016,07,18,12,59,21.60
2016,07,18,13,00,21.50
2016,07,18,13,01,21.40
2016,07,18,13,02,21.40
2016,07,18,13,03,21.40
2016,07,18,13,04,21.40
2016,07,18,13,05,21.40
2016,07,18,13,06,21.50
2016,07,18,13,07,21.60
2016,07,18,13,08,21.60
2016,07,18,13,09,21.60
2016,07,18,13,10,21.70
2016,07,18,13,11,21.80
2016,07,18,13,12,21.80
2016,07,18,13,13,21.80
2016,07,18,13,14,21.80
2016,07,18,13,15,21.70
2016,07,18,13,16,21.80
2016,07,18,13,17,21.80
2016,07,18,13,18,21.80
2016,07,18,13,19,21.90
2016,07,18,13,20,21.90
2016,07,18,13,21,21.90
2016,07,18,13,22,21.80
2016,07,18,13,23,21.80
2016,07,18,13,24,21.90
2016,07,18,13,25,21.90
2016,07,18,13,26,22.00
2016,07,18,13,27,22.00
2016,07,18,13,28,22.00
2016,07,18,13,29,22.00
2016,07,18,13,30,22.10
2016,07,18,13,31,22.20
2016,07,18,13,32,22.30
2016,07,18,13,33,22.30
2016,07,18,13,34,22.40
2016,07,18,13,35,22.40
2016,07,18,13,36,22.40
2016,07,18,13,37,22.40
2016,07,18,13,38,22.40
2016,07,18,13,39,22.40
2016,07,18,13,40,22.30
2016,07,18,13,41,22.30
2016,07,18,13,42,22.30
2016,07,18,13,43,22.30
2016,07,18,13,44,22.30
2016,07,18,13,45,22.30
2016,07,18,13,46,22.30
2016,07,18,13,47,22.40
2016,07,18,13,48,22.40
2016,07,18,13,49,22.40
2016,07,18,13,50,22.30
2016,07,18,13,51,22.30
2016,07,18,13,52,22.30
2016,07,18,13,53,22.30
2016,07,18,13,54,22.30
2016,07,18,13,55,22.20
2016,07,18,13,56,22.20
2016,07,18,13,57,22.10
2016,07,18,13,58,22.10
2016,07,18,13,59,22.20
2016,07,18,14,00,22.30
2016,07,18,14,01,22.40
2016,07,18,14,02,22.40
2016,07,18,14,03,22.50
2016,07,18,14,04,22.50
2016,07,18,14,05,22.50
2016,07,18,14,06,22.60
2016,07,18,14,07,22.70
2016,07,18,14,08,22.70
2016,07,18,14,09,22.70
2016,07,18,14,10,22.70
2016,07,18,14,11,22.70
2016,07,18,14,12,22.60
2016,07,18,14,13,22.60
2016,07,18,14,14,22.60
2016,07,18,14,15,22.60
2016,07,18,14,16,22.60
2016,07,18,14,17,22.60
2016,07,18,14,18,22.60
2016,07,18,14,19,22.70
2016,07,18,14,20,22.70
2016,07,18,14,21,22.70
2016,07,18,14,22,22.70
2016,07,18,14,23,22.70
2016,07,18,14,24,22.70
2016,07,18,14,25,22.80
2016,07,18,14,26,22.90
2016,07,18,14,27,23.00
2016,07,18,14,28,23.10
2016,07,18,14,29,23.20
2016,07,18,14,30,23.30
2016,07,18,14,31,23.30
2016,07,18,14,32,23.30
2016,07,18,14,33,23.20
2016,07,18,14,34,23.10
2016,07,18,14,35,23.10
2016,07,18,14,36,23.20
2016,07,18,14,37,23.20
2016,07,18,14,38,23.20
2016,07,18,14,39,23.20
2016,07,18,14,40,23.20
2016,07,18,14,41,23.10
2016,07,18,14,42,23.20
2016,07,18,14,43,23.20
2016,07,18,14,44,23.30
2016,07,18,14,45,23.40
2016,07,18,14,46,23.40
2016,07,18,14,47,23.40
2016,07,18,14,48,23.40
2016,07,18,14,49,23.40
2016,07,18,14,50,23.50
2016,07,18,14,51,23.60
2016,07,18,14,52,23.60
2016,07,18,14,53,23.70
2016,07,18,14,54,23.70
2016,07,18,14,55,23.60
2016,07,18,14,56,23.50
2016,07,18,14,57,23.40
2016,07,18,14,58,23.30
2016,07,18,14,59,23.30
2016,07,18,15,00,23.30
2016,07,18,15,01,23.30
2016,07,18,15,02,23.20
2016,07,18,15,03,23.20
2016,07,18,15,04,23.20
2016,07,18,15,05,23.20
2016,07,18,15,06,23.20
2016,07,18,15,07,23.20
2016,07,18,15,08,23.10
2016,07,18,15,09,23.20
2016,07,18,15,10,23.30
2016,07,18,15,11,23.30
2016,07,18,15,12,23.20
2016,07,18,15,13,23.10
2016,07,18,15,14,23.00
2016,07,18,15,15,22.90
2016,07,18,15,16,22.80
2016,07,18,15,17,22.80
2016,07,18,15,18,22.80
2016,07,18,15,19,22.70
2016,07,18,15,20,22.70
2016,07,18,15,21,22.70
2016,07,18,15,22,22.70
2016,07,18,15,23,22.70
2016,07,18,15,24,22.70
2016,07,18,15,25,22.70
2016,07,18,15,26,22.70
2016,07,18,15,27,22.80
2016,07,18,15,28,22.80
2016,07,18,15,29,22.90
2016,07,18,15,30,23.00
2016,07,18,15,31,23.10
2016,07,18,15,32,23.10
2016,07,18,15,33,23.20
2016,07,18,15,34,23.10
2016,07,18,15,35,23.10
2016,07,18,15,36,23.10
2016,07,18,15,37,23.10
2016,07,18,15,38,23.10
2016,07,18,15,39,23.10
2016,07,18,15,40,23.10
2016,07,18,15,41,23.10
2016,07,18,15,42,23.10
2016,07,18,15,43,23.10
2016,07,18,15,44,23.10
2016,07,18,15,45,23.10
2016,07,18,15,46,23.10
2016,07,18,15,47,23.20
2016,07,18,15,48,23.20
2016,07,18,15,49,23.30
2016,07,18,15,50,23.30
2016,07,18,15,51,23.20
2016,07,18,15,52,23.10
2016,07,18,15,53,23.10
2016,07,18,15,54,23.20
2016,07,18,15,55,23.30
2016,07,18,15,56,23.30
2016,07,18,15,57,23.30
2016,07,18,15,58,23.20
2016,07,18,15,59,23.10
2016,07,18,16,00,23.10
2016,07,18,16,01,23.00
2016,07,18,16,02,22.90
2016,07,18,16,03,22.70
2016,07,18,16,04,22.60
2016,07,18,16,05,22.40
2016,07,18,16,06,22.30
2016,07,18,16,07,22.20
2016,07,18,16,08,22.20
2016,07,18,16,09,22.20
2016,07,18,16,10,22.20
2016,07,18,16,11,22.20
2016,07,18,16,12,22.20
2016,07,18,16,13,22.20
2016,07,18,16,14,22.20
2016,07,18,16,15,22.20
2016,07,18,16,16,22.20
2016,07,18,16,17,22.10
2016,07,18,16,18,22.10
2016,07,18,16,19,22.10
2016,07,18,16,20,22.10
2016,07,18,16,21,22.10
2016,07,18,16,22,22.10
2016,07,18,16,23,22.10
2016,07,18,16,24,22.10
2016,07,18,16,25,22.10
2016,07,18,16,26,22.10
2016,07,18,16,27,22.10
2016,07,18,16,28,22.20
2016,07,18,16,29,22.20
2016,07,18,16,30,22.20
2016,07,18,16,31,22.20
2016,07,18,16,32,22.20
2016,07,18,16,33,22.20
2016,07,18,16,34,22.20
2016,07,18,16,35,22.10
2016,07,18,16,36,22.00
2016,07,18,16,37,22.00
2016,07,18,16,38,21.90
2016,07,18,16,39,21.90
2016,07,18,16,40,21.90
2016,07,18,16,41,21.90
2016,07,18,16,42,21.80
2016,07,18,16,43,21.80
2016,07,18,16,44,21.80
2016,07,18,16,45,21.80
2016,07,18,16,46,21.80
2016,07,18,16,47,21.80
2016,07,18,16,48,21.80
2016,07,18,16,49,21.80
2016,07,18,16,50,21.80
2016,07,18,16,51,21.80
2016,07,18,16,52,21.80
2016,07,18,16,53,21.80
2016,07,18,16,54,21.80
2016,07,18,16,55,21.70
2016,07,18,16,56,21.70
2016,07,18,16,57,21.60
2016,07,18,16,58,21.60
2016,07,18,16,59,21.60
2016,07,18,17,00,21.60
2016,07,18,17,01,21.50
2016,07,18,17,02,21.50
2016,07,18,17,03,21.50
2016,07,18,17,04,21.50
2016,07,18,17,05,21.50
2016,07,18,17,06,21.50
2016,07,18,17,07,21.40
2016,07,18,17,08,21.40
2016,07,18,17,09,21.30
2016,07,18,17,10,21.30
2016,07,18,17,11,21.30
2016,07,18,17,12,21.20
2016,07,18,17,13,21.20
2016,07,18,17,14,21.20
2016,07,18,17,15,21.20
2016,07,18,17,16,21.20
2016,07,18,17,17,21.20
2016,07,18,17,18,21.20
2016,07,18,17,19,21.20